Simultaneous Nadir Overpasses (SNOs) Predictions

Prediction of SNOs between METOP-B and TERRA Satellite Orbit:

Table of predicted SNOs for the next 14.0 days since TLE Epoch: 2/27/2021
Index Date (METOP-B) Time (METOP-B) Lat,Lon (METOP-B) SZA (METOP-B ) Date (TERRA) Time (TERRA) Lat,Lon (TERRA) SZA (TERRA ) Distance(km) Time Diff (sec)
1 03/01/2021 20:51:39 -81.30, 93.32 89.16 03/01/2021 20:52:38 -81.30, 93.39 89.13 1.26 59
2 03/01/2021 21:42:18 81.31, -98.88 90.88 03/01/2021 21:42:04 81.30, -98.88 90.87 0.31 14
3 03/04/2021 16:25:59 -81.30, 159.83 90.21 03/04/2021 16:26:51 -81.29, 159.70 90.21 2.53 52
4 03/04/2021 17:16:38 81.31, -32.37 89.84 03/04/2021 17:16:16 81.32, -32.23 89.85 2.53 22
5 03/07/2021 12:00:20 -81.30,-133.67 91.27 03/07/2021 12:01:04 -81.30,-133.67 91.25 0.13 44
6 03/07/2021 12:50:59 81.31, 34.12 88.78 03/07/2021 12:50:30 81.30, 34.01 88.75 2.01 29
7 03/10/2021 07:34:41 -81.30, -67.20 92.34 03/10/2021 07:35:17 -81.31, -67.07 92.30 2.36 36
8 03/10/2021 08:25:20 81.31, 100.59 87.71 03/10/2021 08:24:43 81.31, 100.58 87.69 0.35 37



Historial Predications of SNOs between METOP-B and TERRA
